• In Austria
  • List of Countries
  • For 7 days
  • Water Temperature
  • Satellite Maps
  • Weather Map
  • News
  • Weather Widgets
  • user-avatar
    Login

    Hourly Weather Shusha

    Today, 15 August, Wednesday

    Time Temperature Precipitation Wind Pressure Humidity
    00:00 +16°C° 0 mm 2 mps 660 mmHg 76%
    01:00 +16°C° 0 mm 2 mps 660 mmHg 75%
    02:00 +15°C° 0 mm 2 mps 660 mmHg 75%
    03:00 +15°C° 0 mm 2 mps 660 mmHg 72%
    04:00 +15°C° 0 mm 2 mps 660 mmHg 70%
    05:00 +16°C° 0 mm 2 mps 660 mmHg 68%
    06:00 +16°C° 0 mm 1 mps 660 mmHg 66%
    07:00 +18°C° 0 mm 2 mps 661 mmHg 59%
    08:00 +19°C° 0 mm 2 mps 661 mmHg 52%
    09:00 +21°C° 0 mm 3 mps 662 mmHg 44%
    10:00 +22°C° 0 mm 3 mps 662 mmHg 42%
    11:00 +23°C° 0 mm 4 mps 662 mmHg 40%
    12:00 +25°C° 0 mm 4 mps 662 mmHg 37%
    13:00 +26°C° 0 mm 4 mps 662 mmHg 37%
    14:00 +26°C° 0 mm 4 mps 662 mmHg 37%
    15:00 +26°C° 0 mm 4 mps 662 mmHg 37%
    16:00 +25°C° 0 mm 4 mps 661 mmHg 39%
    17:00 +25°C° 0 mm 3 mps 661 mmHg 42%
    18:00 +24°C° 0 mm 3 mps 661 mmHg 45%
    19:00 +21°C° 0 mm 3 mps 661 mmHg 51%
    20:00 +20°C° 0 mm 2 mps 661 mmHg 57%
    21:00 +18°C° 0 mm 2 mps 661 mmHg 63%
    22:00 +18°C° 0 mm 2 mps 661 mmHg 65%
    23:00 +17°C° 0 mm 2 mps 661 mmHg 67%

    Tomorrow, 16 August, Thursday

    Time Temperature Precipitation Wind Pressure Humidity
    00:00 +17°C° 0 mm 2 mps 661 mmHg 69%
    01:00 +18°C° 0 mm 1 mps 661 mmHg 70%
    02:00 +16°C° 0 mm 1 mps 661 mmHg 71%
    03:00 +16°C° 0 mm 1 mps 661 mmHg 72%
    04:00 +16°C° 0 mm 1 mps 661 mmHg 71%
    05:00 +18°C° 0 mm 1 mps 661 mmHg 70%
    06:00 +18°C° 0 mm 1 mps 661 mmHg 69%
    07:00 +20°C° 0 mm 1 mps 661 mmHg 63%
    08:00 +21°C° 0 mm 2 mps 662 mmHg 57%
    09:00 +23°C° 0 mm 2 mps 662 mmHg 51%
    10:00 +25°C° 0 mm 3 mps 662 mmHg 47%
    11:00 +26°C° 0 mm 3 mps 662 mmHg 43%
    12:00 +27°C° 0 mm 3 mps 662 mmHg 40%
    13:00 +28°C° 0 mm 3 mps 662 mmHg 39%
    14:00 +28°C° 0 mm 3 mps 662 mmHg 38%
    15:00 +29°C° 0 mm 3 mps 661 mmHg 37%
    16:00 +28°C° 0 mm 3 mps 661 mmHg 39%
    17:00 +27°C° 0 mm 3 mps 661 mmHg 42%
    18:00 +26°C° 0 mm 3 mps 661 mmHg 45%
    19:00 +25°C° 0 mm 2 mps 661 mmHg 50%
    20:00 +23°C° 0 mm 2 mps 660 mmHg 56%
    21:00 +21°C° 0 mm 1 mps 660 mmHg 61%
    22:00 +21°C° 0 mm 1 mps 660 mmHg 62%
    23:00 +21°C° 0 mm 1 mps 660 mmHg 63%

    Day after tomorrow, 17 August, Friday

    Time Temperature Precipitation Wind Pressure Humidity
    00:00 +20°C° 0 mm 1 mps 660 mmHg 63%
    01:00 +20°C° 0 mm 1 mps 660 mmHg 63%
    02:00 +20°C° 0 mm 1 mps 659 mmHg 63%
    03:00 +19°C° 0 mm 1 mps 659 mmHg 64%
    04:00 +20°C° 0 mm 1 mps 659 mmHg 62%
    05:00 +20°C° 0 mm 1 mps 659 mmHg 61%
    06:00 +20°C° 0 mm 1 mps 659 mmHg 60%
    07:00 +22°C° 0 mm 1 mps 660 mmHg 53%
    08:00 +24°C° 0 mm 2 mps 660 mmHg 46%
    09:00 +26°C° 0 mm 2 mps 661 mmHg 39%
    10:00 +28°C° 0 mm 2 mps 661 mmHg 36%
    11:00 +29°C° 0 mm 3 mps 661 mmHg 33%
    12:00 +30°C° 0 mm 3 mps 660 mmHg 30%
    13:00 +31°C° 0 mm 3 mps 660 mmHg 30%
    14:00 +31°C° 0 mm 3 mps 660 mmHg 29%
    15:00 +33°C° 0 mm 3 mps 659 mmHg 28%
    16:00 +31°C° 0 mm 3 mps 659 mmHg 31%
    17:00 +30°C° 0 mm 3 mps 659 mmHg 34%
    18:00 +29°C° 0 mm 3 mps 659 mmHg 36%
    19:00 +27°C° 0 mm 2 mps 658 mmHg 42%
    20:00 +25°C° 0 mm 2 mps 658 mmHg 47%
    21:00 +23°C° 0 mm 1 mps 658 mmHg 52%
    22:00 +23°C° 0 mm 1 mps 658 mmHg 53%
    23:00 +22°C° 0 mm 1 mps 658 mmHg 54%

    18 August, Saturday

    Time Temperature Precipitation Wind Pressure Humidity
    00:00 +22°C° 0 mm 1 mps 658 mmHg 55%
    01:00 +21°C° 0 mm 1 mps 658 mmHg 56%
    02:00 +21°C° 0 mm 1 mps 657 mmHg 56%
    03:00 +21°C° 0 mm 1 mps 657 mmHg 57%
    04:00 +21°C° 0 mm 1 mps 657 mmHg 57%
    05:00 +21°C° 0 mm 1 mps 657 mmHg 57%
    06:00 +21°C° 0 mm 1 mps 657 mmHg 56%
    07:00 +23°C° 0 mm 1 mps 658 mmHg 49%
    08:00 +25°C° 0 mm 2 mps 658 mmHg 42%
    09:00 +27°C° 0 mm 2 mps 659 mmHg 35%
    10:00 +28°C° 0 mm 2 mps 658 mmHg 33%
    11:00 +30°C° 0 mm 3 mps 658 mmHg 31%
    12:00 +31°C° 0 mm 3 mps 658 mmHg 28%
    13:00 +32°C° 0 mm 4 mps 658 mmHg 28%
    14:00 +32°C° 0 mm 4 mps 657 mmHg 28%
    15:00 +33°C° 0 mm 4 mps 657 mmHg 27%
    16:00 +32°C° 0 mm 4 mps 657 mmHg 30%
    17:00 +30°C° 0 mm 4 mps 656 mmHg 33%
    18:00 +29°C° 0 mm 3 mps 656 mmHg 36%
    19:00 +27°C° 0 mm 3 mps 656 mmHg 43%
    20:00 +25°C° 0 mm 2 mps 656 mmHg 49%
    21:00 +23°C° 0 mm 2 mps 656 mmHg 55%
    22:00 +21°C° 0 mm 2 mps 656 mmHg 57%
    23:00 +21°C° 0 mm 2 mps 657 mmHg 59%

    19 August, Sunday

    Time Temperature Precipitation Wind Pressure Humidity
    00:00 +20°C° 0 mm 2 mps 657 mmHg 61%
    01:00 +20°C° 0 mm 2 mps 657 mmHg 61%
    02:00 +21°C° 0 mm 1 mps 657 mmHg 62%
    03:00 +20°C° 0 mm 1 mps 657 mmHg 63%
    04:00 +20°C° 0 mm 1 mps 657 mmHg 62%
    05:00 +21°C° 0 mm 1 mps 657 mmHg 61%
    06:00 +21°C° 0 mm 1 mps 657 mmHg 60%
    07:00 +21°C° 0 mm 2 mps 658 mmHg 54%
    08:00 +24°C° 0 mm 2 mps 659 mmHg 48%
    09:00 +26°C° 0 mm 3 mps 659 mmHg 42%
    10:00 +27°C° 0 mm 3 mps 659 mmHg 40%
    11:00 +27°C° 0 mm 4 mps 659 mmHg 39%
    12:00 +28°C° 0 mm 4 mps 659 mmHg 38%
    13:00 +29°C° 0.1 mm 5 mps 659 mmHg 37%
    14:00 +29°C° 0.1 mm 5 mps 659 mmHg 36%
    15:00 +29°C° 0.1 mm 5 mps 658 mmHg 35%
    16:00 +28°C° 0 mm 5 mps 658 mmHg 38%
    17:00 +27°C° 0 mm 5 mps 658 mmHg 40%
    18:00 +26°C° 0 mm 6 mps 658 mmHg 42%
    19:00 +23°C° 0 mm 5 mps 658 mmHg 48%
    20:00 +21°C° 0 mm 4 mps 658 mmHg 53%
    21:00 +20°C° 0 mm 3 mps 658 mmHg 58%
    22:00 +19°C° 0 mm 3 mps 658 mmHg 61%
    23:00 +19°C° 0 mm 3 mps 658 mmHg 63%

    20 August, Monday

    Time Temperature Precipitation Wind Pressure Humidity
    00:00 +18°C° 0 mm 2 mps 658 mmHg 65%
    01:00 +18°C° 0 mm 2 mps 658 mmHg 67%
    02:00 +17°C° 0 mm 2 mps 658 mmHg 69%
    03:00 +17°C° 0 mm 2 mps 658 mmHg 70%
    04:00 +17°C° 0 mm 2 mps 658 mmHg 70%
    05:00 +17°C° 0 mm 2 mps 658 mmHg 70%
    06:00 +17°C° 0 mm 2 mps 659 mmHg 70%
    07:00 +18°C° 0 mm 3 mps 659 mmHg 64%
    08:00 +20°C° 0 mm 3 mps 660 mmHg 59%
    09:00 +21°C° 0 mm 4 mps 660 mmHg 53%
    10:00 +22°C° 0 mm 4 mps 660 mmHg 50%
    11:00 +23°C° 0 mm 4 mps 660 mmHg 47%
    12:00 +25°C° 0 mm 5 mps 660 mmHg 45%
    13:00 +25°C° 0 mm 5 mps 660 mmHg 44%
    14:00 +26°C° 0 mm 5 mps 660 mmHg 43%
    15:00 +26°C° 0 mm 5 mps 660 mmHg 42%
    16:00 +25°C° 0 mm 5 mps 660 mmHg 44%
    17:00 +23°C° 0 mm 5 mps 660 mmHg 47%
    18:00 +22°C° 0 mm 5 mps 659 mmHg 50%
    19:00 +20°C° 0 mm 4 mps 660 mmHg 54%
    20:00 +18°C° 0 mm 3 mps 660 mmHg 59%
    21:00 +17°C° 0 mm 2 mps 660 mmHg 64%
    22:00 +16°C° 0 mm 2 mps 660 mmHg 65%
    23:00 +16°C° 0 mm 2 mps 660 mmHg 67%
    Show more